Location: Ferma
(41.9500°N, 44.5167°E)
Time: 19:53:45
(UTC+00:00)

FENGYUN 1C DEB - Pass Details

Date: 18 August 2022
Orbit: 606 x 930 km, 99.7° (Epoch: 01 October)

Event Time Altitude Azimuth Distance (km) Brightness Sun altitude
Exits shadow 17:22:43 23° 125° (SE) 1,644 ? -15.0°
Maximum altitude 17:25:35 44° 67° (ENE) 1,140 ? -15.4°
Drops below altitude 10° 17:30:52 10° 357° (N) 2,529 ? -16.2°
Sets 17:33:27 0° 352° (N) 3,509 ? -16.6°
